Theta_e
332 327 329 321 310 311 307 309 324 319 322 330 327 325 330 339 336 326 351 354 354 353 357 361 367 368 368 367 366 364 363 363 363 362 362 362 363 363 364 364 363 360 359 359 359 358 358 358 358
324 329 322 316 308 305 308 318 320 326 330 330 327 323 322 332 346 346 348 354 354 352 355 357 365 366 367 367 366 365 364 364 363 363 363 363 363 362 362 363 362 359 357 357 358 357 356 357 357
324 327 315 313 310 306 308 318 327 330 331 326 324 326 323 323 335 352 355 355 353 354 354 359 364 364 366 366 366 365 365 364 363 363 363 363 363 362 362 362 360 358 356 357 357 357 355 355 355
321 321 316 308 307 313 314 322 329 329 329 326 322 322 330 337 349 357 358 355 354 354 353 360 363 363 364 364 365 365 365 364 364 363 363 363 362 362 362 361 359 358 357 357 357 356 355 354 353
322 317 308 307 309 314 318 324 328 325 325 325 323 321 328 347 357 357 356 355 354 352 351 355 362 362 363 362 363 364 364 364 363 363 362 362 362 361 361 360 358 357 356 355 355 355 356 356 355
313 315 306 305 309 314 319 322 327 325 325 324 323 325 331 350 351 352 353 356 356 353 353 354 362 363 362 362 362 362 362 362 362 362 362 362 361 361 360 360 359 357 356 356 355 354 354 354 353
311 311 306 308 309 313 318 322 323 323 323 320 325 322 337 346 350 351 351 357 357 357 355 354 354 359 362 361 361 361 360 360 360 360 360 360 360 360 360 360 359 359 358 357 356 357 356 354 353
314 311 307 309 308 310 318 320 325 325 323 325 329 321 330 343 349 349 349 352 355 356 356 356 356 353 353 354 359 359 360 360 359 358 357 357 358 360 359 359 359 360 359 359 359 360 359 358 357
317 307 304 307 309 312 318 319 326 329 320 321 321 328 339 344 347 345 345 346 349 352 356 357 356 357 356 355 357 359 358 358 358 357 359 356 352 351 352 353 356 359 358 358 358 359 359 359 359
311 307 307 312 314 313 317 319 321 319 317 317 324 331 337 341 342 342 339 342 341 348 353 357 359 361 360 357 358 359 359 358 359 359 359 357 362 362 357 359 361 360 359 359 358 357 358 358 349
311 307 311 313 315 315 315 318 322 319 315 316 321 330 332 335 339 340 339 342 341 349 354 356 361 363 358 360 363 363 363 363 362 363 362 366 359 366 361 361 357 359 360 355 358 355 353 348 349
307 311 312 313 314 314 313 317 317 319 319 321 323 331 331 332 335 336 337 340 341 344 354 355 353 344 350 343 340 338 338 339 345 344 345 351 345 346 345 342 345 359 357 359 360 356 358 358 358
308 309 312 314 314 314 315 314 315 317 320 322 326 330 328 331 334 336 338 340 344 344 349 342 341 346 345 344 342 341 339 339 340 344 340 341 342 343 342 341 339 338 339 340 348 351 352 353 354
310 310 310 312 313 313 311 312 314 318 321 320 325 325 326 328 331 331 336 338 340 343 343 340 337 346 342 346 347 344 345 341 343 341 338 344 341 342 340 338 339 338 338 336 334 333 336 337 341
310 307 309 310 311 310 312 308 310 317 318 317 321 322 323 325 327 328 331 337 339 340 340 339 338 344 346 346 344 347 344 337 340 338 340 339 339 340 339 336 337 339 338 337 336 336 336 336 337
306 306 301 308 310 310 310 303 312 316 315 315 319 321 321 322 323 326 329 336 340 337 335 336 329 337 343 347 343 343 341 342 341 341 341 337 335 338 336 334 335 337 336 335 335 335 334 333 333
304 298 300 303 310 309 308 304 311 316 315 314 317 320 319 319 322 326 325 329 333 335 335 335 338 334 341 346 344 344 343 342 341 341 338 336 333 331 334 333 334 335 334 334 333 332 334 330 331
299 299 300 301 306 308 305 305 309 314 314 314 315 317 317 317 319 324 324 327 331 335 337 339 336 342 344 343 344 343 341 339 339 339 334 335 333 331 333 330 335 334 332 332 335 334 333 332 329
302 301 301 304 306 306 306 306 307 310 313 313 313 316 316 317 320 323 324 328 331 334 336 339 340 342 339 338 336 339 335 340 338 337 334 333 332 331 333 330 329 332 330 333 332 331 329 328 331
302 300 300 305 308 306 307 305 309 310 311 314 314 314 316 317 318 321 323 327 330 333 335 338 339 339 339 339 343 342 342 337 338 337 334 333 331 331 328 330 328 332 327 329 330 330 327 327 329
301 299 300 300 305 307 305 303 306 309 312 313 314 315 316 317 317 320 321 326 330 332 334 336 338 339 339 341 342 341 338 336 335 335 334 332 330 329 330 330 329 329 329 325 330 330 329 323 326
299 304 303 301 300 296 306 294 303 307 308 311 313 313 314 315 319 319 321 324 328 330 334 335 338 340 338 346 338 336 329 331 336 333 333 331 331 329 329 329 328 329 328 327 326 329 330 328 322
300 305 303 301 299 299 299 297 301 307 305 308 312 314 315 316 317 318 320 324 326 330 332 335 338 340 338 341 341 336 338 336 335 334 332 335 334 331 328 329 329 328 328 327 327 326 326 325 322
306 303 303 303 300 293 299 298 298 302 306 309 312 313 315 315 316 319 320 324 325 327 330 332 335 338 339 339 339 339 334 336 333 332 332 331 332 330 330 329 330 332 329 327 327 328 326 325 325
304 300 294 291 292 292 301 297 301 307 310 311 313 314 315 317 316 317 318 319 323 325 326 330 333 333 336 337 336 337 339 338 335 334 329 331 328 329 330 329 329 327 328 327 327 325 325 324 321
301 300 294 287 290 292 301 295 301 310 312 313 314 316 316 316 317 318 319 322 321 324 327 329 331 332 334 334 334 335 336 331 330 332 328 330 329 327 330 328 327 326 326 326 326 324 323 324 323
300 297 302 297 298 294 298 302 307 310 310 311 312 314 315 316 318 318 320 324 322 325 327 328 330 331 333 333 333 333 333 332 332 337 334 330 331 326 328 325 324 325 325 325 325 322 321 321 321
303 304 297 299 290 288 294 298 299 305 307 310 310 312 314 317 317 318 320 325 328 328 328 329 331 330 332 332 332 331 332 332 332 332 331 330 329 328 325 324 324 324 324 324 324 321 321 319 319
301 298 299 301 297 292 291 295 309 310 309 311 312 313 315 315 315 317 318 322 324 327 326 328 328 329 329 331 332 331 330 331 331 330 329 329 329 327 323 322 322 322 323 323 323 321 319 317 315
305 301 300 293 293 298 297 296 309 311 310 313 312 314 315 315 315 316 318 320 322 324 325 327 328 326 327 330 331 331 331 332 332 330 329 329 326 325 323 322 321 321 321 321 320 319 318 316 313
Wind_Speed
9 12 10 9 7 7 17 18 22 29 36 24 24 23 24 19 16 11 17 24 24 19 14 15 15 14 13 14 14 13 12 13 13 12 11 11 10 10 9 8 8 8 8 8 7 6 5 5 4
11 17 9 7 10 13 16 7 10 17 20 18 14 22 22 22 19 17 13 24 22 17 13 14 15 15 14 13 13 13 13 13 12 11 11 10 10 9 8 7 7 7 7 6 6 5 4 3 2
10 16 8 7 13 15 14 11 19 17 18 15 20 19 10 11 13 14 19 22 21 17 15 13 15 15 14 13 13 13 12 12 12 11 10 10 9 8 8 6 6 6 6 6 5 4 3 2 0
7 7 7 10 18 21 21 10 18 14 17 14 19 15 10 8 11 15 20 20 20 19 14 12 14 15 14 14 13 12 12 11 11 11 10 10 9 8 7 6 5 5 5 5 5 4 4 2 2
9 8 12 15 19 24 19 12 10 12 10 14 18 15 12 13 17 17 18 17 21 19 14 12 12 13 13 13 13 12 11 11 10 10 10 9 8 7 6 5 5 4 4 4 4 4 4 4 4
8 8 13 15 20 22 20 10 9 10 11 17 22 18 11 15 15 16 16 19 22 18 14 12 11 12 12 13 12 11 11 10 9 9 9 8 8 8 7 6 6 5 4 4 4 4 5 5 6
14 12 17 19 21 21 17 9 10 11 12 12 21 17 13 17 16 15 14 20 22 19 14 11 11 11 12 11 10 10 9 9 8 8 8 8 8 8 8 7 7 6 5 4 5 5 6 7 8
12 13 22 20 18 22 13 13 15 13 11 15 20 14 18 18 18 17 16 19 21 19 19 17 13 12 10 9 10 9 9 8 8 7 7 7 8 10 11 10 9 7 6 6 7 7 8 9 9
18 15 16 21 21 20 10 11 13 10 16 10 5 20 21 20 19 17 17 17 17 17 18 17 16 14 10 12 9 8 8 8 8 7 7 6 6 8 10 10 9 11 10 10 10 11 12 12 12
18 16 22 21 20 18 15 11 12 14 15 14 13 22 20 18 16 16 14 15 12 20 21 16 14 15 12 10 12 9 9 7 7 6 7 6 4 5 4 10 11 12 12 12 14 17 15 12 8
21 20 21 21 22 19 12 13 13 16 14 16 16 18 20 18 16 14 12 17 15 23 14 14 12 12 15 12 9 7 7 7 5 3 3 3 4 1 1 4 5 4 9 6 6 9 8 10 9
23 25 21 24 25 12 17 14 15 12 11 19 17 18 18 18 15 14 13 14 14 14 19 14 9 10 7 5 4 3 4 3 3 5 5 2 3 4 5 4 5 1 4 4 4 4 4 6 6
24 22 20 23 20 8 16 20 15 17 17 22 23 20 17 16 15 13 11 11 16 15 13 13 10 8 5 5 5 4 2 3 5 4 4 5 5 5 5 4 4 5 5 4 3 4 4 7 7
20 19 20 19 22 8 18 18 18 12 11 14 22 20 17 16 15 9 8 11 13 14 11 12 11 5 4 5 6 3 5 3 2 5 5 5 4 4 4 5 4 5 5 5 6 7 5 5 6
19 21 18 17 23 15 17 21 23 13 16 15 18 16 15 14 13 12 8 8 15 13 12 11 10 6 7 6 4 4 2 5 4 5 4 5 4 4 4 4 4 4 5 7 6 6 5 5 6
16 17 19 16 21 12 18 18 21 16 15 15 19 17 15 14 14 14 12 11 14 14 13 10 11 10 7 6 4 4 2 4 4 4 4 3 5 5 5 4 4 5 4 5 4 5 5 5 5
15 16 21 20 18 18 20 15 20 18 14 12 14 16 15 13 12 12 13 12 14 13 12 9 10 11 7 6 4 6 4 2 4 2 5 6 5 6 5 4 4 5 4 4 5 4 5 6 7
16 20 19 18 19 20 21 18 17 15 21 19 17 17 16 16 16 14 14 14 14 14 11 8 8 10 8 4 4 4 3 3 4 3 4 6 3 5 5 5 5 4 4 4 4 6 6 5 6
18 22 21 17 25 19 22 18 19 19 17 23 18 16 18 17 16 16 15 16 16 14 12 9 10 10 7 5 5 4 5 3 2 4 6 3 4 4 4 4 6 5 5 5 6 5 6 6 5
21 23 23 21 18 21 20 20 18 17 19 16 19 18 15 18 17 18 16 17 17 15 13 10 10 11 8 6 3 3 2 4 4 4 5 4 2 1 3 4 4 5 5 6 5 5 4 5 5
23 22 21 23 18 18 17 15 11 14 19 19 17 14 16 17 19 17 19 19 18 18 16 13 11 12 9 7 6 3 4 3 3 4 4 5 3 1 2 2 3 4 4 5 5 5 6 6 5
17 15 18 19 17 17 16 13 16 19 21 20 18 19 20 20 16 19 21 20 19 18 16 14 12 13 10 6 7 7 5 5 3 4 5 3 3 4 2 5 4 3 3 5 5 5 4 5 5
17 17 19 21 20 19 22 16 14 17 24 24 20 18 16 13 15 19 19 21 21 19 18 15 13 12 10 7 7 7 4 4 4 3 5 4 4 6 7 5 5 3 3 5 5 6 5 5 6
17 18 19 15 14 15 20 20 16 15 17 16 20 20 18 16 16 15 18 21 22 20 20 19 17 13 10 9 6 6 9 4 3 4 2 3 3 1 4 4 2 2 3 5 5 5 6 6 6
21 12 9 12 14 13 19 20 16 16 13 5 15 19 20 18 17 16 20 20 23 24 21 19 19 16 13 10 8 5 4 4 4 3 4 3 2 2 2 3 1 3 4 5 5 6 7 6 6
15 15 12 14 13 17 21 20 18 21 23 5 7 7 9 7 6 5 7 6 12 22 21 21 20 18 15 12 10 8 6 5 5 5 5 2 2 3 4 2 4 6 6 6 6 5 6 6 6
23 17 20 19 20 16 16 19 24 9 9 8 9 9 9 4 2 4 8 7 9 15 20 20 22 19 16 13 10 9 8 7 5 3 2 2 4 4 3 5 6 6 7 7 7 6 7 6 8
20 16 15 12 17 19 18 19 8 14 14 13 11 11 7 8 4 4 6 5 5 7 16 16 20 18 15 14 11 10 9 8 6 4 5 5 4 5 6 7 7 8 8 8 7 7 7 7 7
13 15 16 13 10 14 14 14 14 5 15 7 11 13 13 10 11 8 6 2 5 4 16 12 15 17 13 12 12 10 9 8 8 6 5 5 5 6 7 9 9 9 9 8 8 8 9 10 11
19 19 18 9 15 12 15 13 8 12 12 11 13 10 11 10 7 10 7 6 6 6 13 11 9 11 12 12 11 10 8 6 6 5 5 5 7 7 8 9 10 10 11 10 10 10 10 11 14
Wind_Direction
259 227 226 252 247 218 256 216 167 135 260 73 58 70 74 51 45 86 125 109 108 106 122 106 101 103 106 108 113 117 121 122 124 125 125 123 122 117 111 104 103 106 111 114 112 106 100 94 79
284 277 241 275 253 272 252 194 191 122 88 86 106 86 67 73 85 113 111 103 109 124 118 114 108 105 108 109 113 117 123 123 127 130 131 130 129 124 120 113 111 116 120 122 121 114 105 93 42
265 264 275 228 247 254 276 348 100 106 110 105 79 77 67 90 61 98 105 108 117 114 105 117 114 113 113 115 113 117 121 126 130 132 132 133 134 136 137 133 129 135 139 145 147 149 149 156 236
259 222 249 256 266 258 261 54 89 112 123 121 93 90 87 69 108 118 117 122 126 108 110 121 120 121 121 122 123 125 126 127 129 135 140 144 143 144 144 141 138 144 151 157 163 174 182 203 262
236 272 249 256 251 269 277 108 120 141 142 133 113 99 101 116 122 115 124 144 113 115 119 123 118 120 122 124 126 125 125 127 133 138 143 146 148 150 152 149 146 154 167 177 187 201 217 233 261
230 242 252 252 248 254 270 138 139 161 163 119 102 118 109 125 130 137 153 122 114 119 111 127 119 120 121 121 122 124 127 130 134 139 145 151 159 165 167 169 172 173 181 196 208 231 247 256 265
250 255 254 262 271 265 242 144 175 192 150 131 129 117 134 152 144 140 134 111 114 120 121 135 128 118 110 113 117 118 118 122 131 141 152 162 170 174 179 186 190 190 196 214 232 242 248 254 260
239 257 269 268 268 276 267 164 182 195 163 133 122 132 157 139 144 147 142 136 140 142 149 148 142 140 132 134 127 130 134 140 146 151 163 179 187 193 193 195 206 206 215 228 243 248 252 255 256
241 252 256 257 265 274 257 174 174 192 119 118 57 141 133 150 151 162 152 153 153 146 148 145 155 147 145 135 139 145 150 155 164 174 193 191 216 200 213 206 186 199 212 222 233 237 239 239 245
231 243 246 257 269 270 267 186 179 121 130 129 107 113 136 158 163 174 142 164 145 162 136 137 157 152 145 135 153 168 162 174 186 188 182 203 216 199 133 160 179 201 218 228 230 230 232 240 250
232 240 251 260 256 319 281 191 188 162 167 147 150 144 157 167 177 182 158 155 147 117 132 145 153 150 156 158 169 172 167 166 144 126 24 49 340 149 282 164 211 211 216 242 253 232 225 237 238
242 240 240 259 277 312 295 289 233 171 193 164 169 160 169 178 172 169 191 151 157 145 114 121 103 68 47 88 88 64 95 100 87 88 5 10 323 25 1 357 335 224 182 258 298 312 274 262 325
243 246 247 256 270 272 292 280 258 178 221 176 155 162 178 181 181 182 176 138 116 115 111 107 101 68 48 54 70 64 106 49 98 105 69 26 348 32 350 346 335 323 323 321 307 272 328 309 314
251 247 248 253 266 223 261 264 251 185 189 143 146 166 182 190 178 155 120 124 130 116 126 113 104 124 132 78 87 93 67 99 105 71 55 86 3 45 346 336 343 346 328 348 350 335 319 307 312
256 269 261 242 254 244 249 251 248 203 164 168 155 172 187 195 180 152 138 123 120 129 124 126 133 165 112 117 142 111 171 96 75 100 76 71 54 40 13 321 311 322 4 355 333 300 297 292 287
262 255 258 238 252 236 242 241 250 168 172 189 167 179 196 190 187 153 153 141 132 136 129 148 162 140 149 126 125 104 77 86 89 79 116 49 15 62 9 343 332 13 345 317 313 311 312 316 328
233 244 240 248 241 219 224 230 255 191 175 198 190 189 200 194 187 152 158 145 138 133 139 168 133 145 136 134 110 94 80 113 85 70 74 48 346 22 26 328 348 358 315 303 310 324 353 343 336
227 225 241 252 234 229 218 216 255 220 188 194 203 195 203 198 184 158 163 156 145 139 148 169 137 130 130 156 123 137 141 125 136 114 83 71 6 14 27 323 330 326 303 314 344 344 342 322 292
248 254 242 208 250 237 208 207 208 255 241 185 194 200 199 199 185 167 171 155 151 148 156 162 146 146 139 148 171 146 169 140 128 112 107 79 51 21 352 326 345 328 328 346 329 326 322 312 308
241 256 264 265 227 243 203 215 232 221 250 203 190 200 208 196 193 174 168 160 159 156 164 165 161 155 160 171 188 154 154 142 96 93 128 130 150 333 302 9 324 334 340 319 307 303 301 295 296
237 235 249 262 272 266 260 227 223 246 233 245 210 207 214 212 192 181 173 165 162 163 170 176 172 163 176 183 117 86 78 65 161 177 186 157 173 195 227 305 300 309 297 288 334 331 322 306 309
247 248 263 267 252 256 222 243 236 239 252 234 241 199 207 210 203 185 176 171 168 171 169 173 175 168 186 204 149 159 183 190 132 149 114 121 202 219 221 221 229 278 297 297 280 278 316 309 292
252 244 243 232 249 261 253 236 236 226 224 230 221 221 217 222 215 188 179 176 175 170 169 172 174 170 186 201 174 173 204 180 151 150 115 172 238 209 222 206 204 221 249 287 316 306 301 298 297
257 246 251 272 231 241 248 251 236 242 252 239 213 199 205 207 218 199 187 173 181 179 172 170 169 174 189 182 207 192 180 214 125 141 70 262 246 153 255 215 172 237 267 274 269 289 291 283 283
231 233 241 228 237 234 235 242 246 260 248 248 221 195 197 197 203 197 195 197 182 180 177 167 167 174 178 174 186 222 195 160 180 188 220 221 267 261 346 43 312 277 290 293 284 276 274 275 270
200 222 232 232 234 238 230 242 240 239 260 175 51 139 133 145 184 220 246 237 206 173 171 162 166 171 170 173 185 196 197 196 201 213 227 240 337 313 287 289 260 251 252 258 259 265 268 267 273
244 213 232 254 264 263 264 244 219 180 115 138 141 129 114 126 233 290 264 225 218 175 171 165 164 166 171 179 183 193 195 217 219 233 93 234 238 264 291 335 297 280 267 264 262 263 266 283 278
219 251 243 222 240 256 260 265 277 175 194 173 172 157 176 121 124 227 269 275 275 197 166 162 153 161 166 179 186 194 197 201 205 223 230 251 273 273 272 271 268 267 265 262 257 261 260 266 271
210 215 245 276 229 265 248 255 284 294 188 205 188 180 154 153 200 160 225 179 232 167 140 147 149 155 170 184 184 191 198 199 207 210 223 237 253 260 263 266 268 267 265 261 257 254 255 263 268
260 237 223 235 253 246 248 240 269 45 99 221 182 165 131 154 164 145 134 157 195 135 137 144 155 172 176 185 185 185 193 200 210 216 229 241 250 256 264 270 269 270 268 268 264 266 267 263 266